Regional Weather Roundup
Issued by NWS

Current Version | Previous Version | Text Only | Print | Product List | Glossary Off
Versions: 1 2 3 4 5 6 7 8 9 10 11 12 13 14 15 16 17 18 19 20 21 22 23 24 25 26 27 28 29 30 31 32 33 34 35 36 37 38 39 40 41 42 43 44 45 46 47 48 49 50

000
ASUS43 KLMK 170910
RWRKY
KENTUCKY REGIONAL WEATHER ROUNDUP
NATIONAL WEATHER SERVICE LOUISVILLE KY
400 AM EST TUE JAN 17 2017

NOTE "FAIR" INDICATES FEW OR NO CLOUDS BELOW 12,000 FEET
WITH NO SIGNIFICANT WEATHER AND/OR OBSTRUCTIONS TO VISIBILITY.

KYZ001>023-026-027-061>063-070>075-171000-
WESTERN AND SOUTH CENTRAL KENTUCKY

CITY           SKY/WX    TMP DP  RH WIND       PRES   REMARKS
PADUCAH        CLOUDY    63  58  83 SW14      29.91F
HENDERSON      CLOUDY    61  55  82 SW12      29.89S
OWENSBORO      CLOUDY    60  58  92 S15       29.91F
HOPKINSVILLE   RAIN      61  61 100 SW8       29.96F FOG
BOWLING GREEN  LGT RAIN  60  57  89 S10       29.99S
GLASGOW        HVY RAIN  58  58 100 S9G17     29.99F
$$

KYZ024-025-028>034-038-045-046-053-171000-
NORTH CENTRAL KENTUCKY

CITY           SKY/WX    TMP DP  RH WIND       PRES   REMARKS
LOUISVILLE/SDF CLOUDY    60  55  83 S14       29.93F
LOUISVILLE/LOU LGT RAIN  58  56  93 S7        29.94F
FORT KNOX      CLOUDY    58  58 100 S14       29.93F
$$

KYZ035>037-039>044-047>052-055>060-089>105-171000-
NORTHEAST KENTUCKY

CITY           SKY/WX    TMP DP  RH WIND       PRES   REMARKS
LEXINGTON      RAIN      58  55  90 S17       30.00F FOG
COVINGTON      LGT RAIN  57  56  96 S17G24    29.93F
FRANKFORT      LGT RAIN  58  54  86 S12       29.96F
$$

KYZ054-064>069-076>088-106>120-171000-
SOUTHEAST KENTUCKY

CITY           SKY/WX    TMP DP  RH WIND       PRES   REMARKS
JACKSON        LGT RAIN  56  53  90 SW5       30.08S FOG
LONDON         RAIN      56  53  90 CALM      30.07F FOG
SOMERSET       RAIN      55  55 100 S6        30.07F
MIDDLESBORO    CLOUDY    58  54  84 S9G21     30.11F
MONTICELLO     RAIN      59  56  89 SE6       30.07F
$$





USA.gov is the U.S. government's official web portal to all federal, state and local government web resources and services.